Regional Weather Roundup
Issued by NWS

Home | Current Version | Previous Version | Text Only | Print | Product List | Glossary On
Versions: 1 2 3 4 5 6 7 8 9 10 11 12 13 14 15 16 17 18 19 20 21 22 23 24 25 26 27 28 29 30 31 32 33 34 35 36 37 38 39 40 41 42 43 44 45 46 47 48 49 50
000
ASUS46 KLOX 260512
RWRCA

SOUTHERN CALIFORNIA WEATHER ROUNDUP
NATIONAL WEATHER SERVICE OXNARD CALIFORNIA
900 PM PST TUE NOV 25 2014

NOTE: "FAIR" INDICATES FEW OR NO CLOUDS BELOW 12,000 FEET WITH NO
SIGNIFICANT WEATHER AND/OR OBSTRUCTIONS TO VISIBILITY.

  -  STATIONS PRECEEDED BY AN ASTERISK (*) ARE NOT NWS OR FAA
     STATIONS AND ARE NOT SUBJECT TO NWS AND FAA QUALITY CONTROL.

CAZ041-042-087-260600-
LA AND ORANGE COUNTY COASTAL AREAS


CITY           SKY/WX    TMP DP  RH WIND       PRES   REMARKS
L.A. DOWNTOWN  CLEAR     60  46  59 CALM      30.28S
L.A. AIRPORT   CLEAR     64  51  62 VRB3      30.29R
LONG BEACH     CLEAR     61  37  41 CALM      30.28S

CITY           SKY/WX    TMP DP  RH WIND       PRES   REMARKS
AVALON           N/A     57 N/A N/A MISG        N/A
FULLERTON      CLEAR     59  29  31 CALM      30.28S
*GETTY CENTER    N/A     64  16  15 NE3         N/A
HAWTHORNE      CLEAR     63  51  65 CALM      30.29R
*LOS ALAMITOS  CLEAR     55  39  54 CALM      30.28S
*REDONDO BEACH   N/A     63  48  57 CALM      30.27S
SANTA ANA      CLEAR     64  33  31 CALM      30.28S
STA MONICA APT CLEAR     61  46  57 N3        30.29R
*UCLA            N/A     61  37  41 CALM      30.26S

$$

CAZ547-548-048-260600-
LA COUNTY VALLEYS AND INLAND EMPIRE


CITY           SKY/WX    TMP DP  RH WIND       PRES   REMARKS
BURBANK        CLEAR     60  21  22 NW6       30.29S
VAN NUYS       CLEAR     60  21  22 N3        30.30R

CITY           SKY/WX    TMP DP  RH WIND       PRES   REMARKS
CORONA AIRPORT CLEAR     45  24  43 CALM      30.30S
*CHATSWORTH      N/A     58  29  32 CALM      30.28R
CHINO          CLEAR     54  30  40 NE6       30.31S
*CLAREMONT       N/A     55  11  17 N2          N/A
MARCH AFB      CLEAR     53  13  20 CALM      30.32R
*NORTHRIDGE      N/A     57  25  28 CALM        N/A
ONTARIO        CLEAR     61  22  22 NE3       30.30R
POMONA         CLEAR     55  19  24 CALM      30.33R
RIVERSIDE      CLEAR     59  21  23 CALM      30.31R
SAN BERNARDINO NOT AVBL
*SAN GABRIEL     N/A    N/A N/A N/A N112      30.25
*WHITEMAN AP   NOT AVBL
*WHITTIER HILL   N/A     66  14  13 E3          N/A
*WOODLAND HILL   N/A     55  19  24 SE1         N/A

$$

CAZ054-055-260600-
LA AND SAN BERNARDINO COUNTY MOUNTAINS


CITY           SKY/WX    TMP DP  RH WIND       PRES   REMARKS
*ACTON           N/A     52   3  13 SE2         N/A
*BIG BEAR AIRP CLEAR     34  14  44 CALM      30.54S
*BIG PINES       N/A     50  12  21 CALM        N/A
*CHILAO          N/A     62   9  12 N7          N/A
MT WILSON NWS    N/A     57   7  13 MISG        N/A
SANDBERG       CLEAR     55   2  11 NE12      30.44R
*WARM SPRINGS    N/A     63   3   9 N2          N/A

$$

CAZ028-029-059-060-099-260600-
ANTELOPE VALLEY AND SURROUNDING AREAS


CITY           SKY/WX    TMP DP  RH WIND       PRES   REMARKS
LANCASTER      CLEAR     40   7  25 W5        30.40R
PALMDALE       CLEAR     46  11  24 SW5       30.40R

CITY           SKY/WX    TMP DP  RH WIND       PRES   REMARKS
29 PALMS       CLEAR     51   5  15 W6        30.43S
BARSTOW/DAGGET CLEAR     45   2  17 NW3       30.38S
BISHOP         CLEAR     36   7  29 CALM      30.45R
CHINA LAKE     CLEAR     46   6  19 SW9       30.39S
EDWARDS AFB    CLEAR     42   4  20 NE1       30.38R
MOJAVE         FAIR      46   7  19 NW6       30.41R
NEEDLES        CLEAR     53   9  17 W7        30.33S
VICTORVILLE    CLEAR     45   1  16 CALM      30.40R

$$

CAZ039-040-260600-
VENTURA AND SANTA BARBARA COUNTY COAST


CITY           SKY/WX    TMP DP  RH WIND       PRES   REMARKS
CAMARILLO      CLEAR     56  30  37 NE8       30.29S
NWS OXNARD       N/A     54  34  47 CALM      30.28S
OXNARD AIRPORT CLEAR     57  35  43 E5        30.28S
*POINT MUGU    CLEAR     56  42  59 NE5       30.29S
SBA APT/GOLETA CLEAR     52  37  56 CALM      30.26F
*SANTA BARBARA   N/A     61  40  46 CALM      30.35S
*VENTURA         N/A     57  29  35 CALM      30.32S

$$

CAZ044-045-260600-
VENTURA COUNTY VALLEYS


CITY           SKY/WX    TMP DP  RH WIND       PRES   REMARKS
*SIMI VALLEY     N/A     54  29  38 CALM      30.26S
*OJAI            N/A     44  31  60 CALM      30.26F
*FILLMORE        N/A     51  31  46 CALM      30.20S

$$

CAZ053-260600-
VENTURA COUNTY MOUNTAINS


CITY           SKY/WX    TMP DP  RH WIND       PRES   REMARKS
*LOCKWOOD VLY    N/A     37   7  28 MISG        N/A
*ROSE VALLEY     N/A     36  14  41 MISG        N/A

$$

CAZ034-035-036-260600-
CENTRAL COAST AND SANTA YNEZ VALLEY


CITY           SKY/WX    TMP DP  RH WIND       PRES   REMARKS
SAN LUIS OBISP CLEAR     54  28  36 CALM      30.29F
SANTA MARIA    CLEAR     55  33  43 SE6       30.30F

CITY           SKY/WX    TMP DP  RH WIND       PRES   REMARKS
*CAL POLY SLO    N/A     64  34  32 E3G16       N/A
*LOMPOC        CLEAR     48  27  43 CALM      30.30S
*PISMO BEACH     N/A     57  28  32 CALM      30.29F
*SANTA YNEZ    FAIR      52  23  32 E5        30.32S

$$

CAZ037-038-051-260600-
SAN LUIS OBISPO COUNTY INTERIOR AND CUYAMA VALLEY


CITY           SKY/WX    TMP DP  RH WIND       PRES   REMARKS
*CUYAMA          N/A     47  21  35 E1        30.38S
PASO ROBLES    CLEAR     53  39  59 S5        30.35S

$$

CAZ032-033-061-260600-
SOUTHERN DESERTS


CITY           SKY/WX    TMP DP  RH WIND       PRES   REMARKS
BLYTHE         CLEAR     52  11  19 N8        30.31S
IMPERIAL       CLEAR     51  26  37 CALM      30.30S
PALM SPRINGS   CLEAR     58  20  22 CALM      30.33F
THERMAL        CLEAR     49  32  52 N3        30.30S

$$

ELSEWHERE ACROSS THE WESTERN UNITED STATES AND MEXICO


CITY           SKY/WX    TMP DP  RH WIND       PRES   REMARKS
DENVER, CO     CLOUDY    31  27  85 NE16      30.07R WCI  20
GRAND CANYON,  PTCLDY    21   4  47 CALM      30.45R
HONOLULU, HI   PTCLDY    73  59  60 NE12      30.03R
KAHULUI, MAUI  CLEAR     72  63  73 E8        30.05R
LAKE TAHOE, CA CLEAR     36  26  67 S7        30.53R WCI  30
LAS VEGAS, NV  CLEAR     50  16  25 S6        30.35R
MAMMOTH LAKES, FAIR      39  18  41 N5        30.56S
MEXICO CITY, M PTCLDY    52  41  66 W7        30.47R
PHOENIX, AZ    CLEAR     54  15  21 E6        30.29S
PORTLAND, OR   CLOUDY    59  54  83 S7        30.29S
RENO, NV       PTCLDY    40  26  57 S3        30.46R
SALT LAKE CITY MOCLDY    45  29  53 SE9       30.31R
SAN DIEGO, CA  CLEAR     63  29  27 CALM      30.29S
SAN FRANCISCO, CLEAR     58  51  78 SE5       30.35S
SAN JOSE, CA   CLEAR     54  43  66 CALM      30.35S
SEATTLE, WA    CLOUDY    56  53  90 S15       30.17R
TIJUANA, MEX   CLEAR     61  27  27 CALM      30.30R

$$

STATION/POSITION TIME  TEMP    WIND        PRES    VSBY  WAVE
                       AIR SEA DIR/SP/G                  HT/PER
                 (UTC) (F)     (DEG/KT/KT) (MB)    (MI)  (FT/S)
POINT ARGUELLO B NOT AVBL
WEST SANTA BARBA 0500   65 63  310/ 10/ 12 1024.8S         6/14
POINT CONCEPTION NOT AVBL
EAST SANTA BARBA 0500   66 65  250/  6/  6 1025.0
SANTA MONICA BAY 0500   66 66  300/  6/  8 1025.8R         3/11



USA.gov is the U.S. government's official web portal to all federal, state and local government web resources and services.